| time (UTC) | temp C | wind direction | speed KPH | gust KPH | rain 1hr cm | rain 24hr cm | rain mn cm | humidity % | barometer mb |
| 20260831094600 | 23 | 332 | 3.2 | 11.3 | 0.00 | 0.13 | 0.13 | 66 | 1017.8 |
| 20260831093559 | 22 | 309 | 3.2 | 11.3 | 0.00 | 0.13 | 0.13 | 68 | 1017.8 |
| 20260831092600 | 22 | 88 | 1.6 | 8.0 | 0.00 | 0.13 | 0.13 | 68 | 1017.9 |
| 20260831091600 | 22 | 101 | 1.6 | 4.8 | 0.00 | 0.13 | 0.13 | 68 | 1017.9 |
| 20260831090601 | 23 | 156 | 3.2 | 8.0 | 0.00 | 0.13 | 0.13 | 67 | 1017.9 |
| 20260831085602 | 22 | 97 | 0.0 | 4.8 | 0.00 | 0.13 | 0.13 | 69 | 1017.9 |
| 20260831084604 | 22 | 301 | 1.6 | 4.8 | 0.00 | 0.13 | 0.13 | 71 | 1017.9 |
| 20260831083622 | 22 | 182 | 3.2 | 9.7 | 0.00 | 0.13 | 0.13 | 70 | 1017.8 |
| 20260831082602 | 22 | 33 | 1.6 | 8.0 | 0.00 | 0.13 | 0.13 | 71 | 1017.8 |
| 20260831081603 | 22 | 47 | 1.6 | 8.0 | 0.00 | 0.13 | 0.13 | 72 | 1017.8 |
| 20260831080604 | 21 | 88 | 1.6 | 4.8 | 0.00 | 0.13 | 0.13 | 74 | 1017.7 |
| 20260831075604 | 21 | 165 | 1.6 | 4.8 | 0.00 | 0.13 | 0.13 | 80 | 1017.5 |
| 20260831074607 | 21 | 162 | 1.6 | 8.0 | 0.00 | 0.13 | 0.13 | 79 | 1017.4 |
| 20260831073604 | 21 | 105 | 1.6 | 4.8 | 0.00 | 0.13 | 0.13 | 80 | 1017.4 |
| 20260831072605 | 18 | 141 | 1.6 | 4.8 | 0.00 | 0.13 | 0.13 | 86 | 1017.3 |
| 20260831071533 | 18 | 80 | 0.0 | 3.2 | 0.00 | 0.13 | 0.13 | 88 | 1017.3 |
| 20260831070534 | 18 | 117 | 0.0 | 4.8 | 0.00 | 0.15 | 0.13 | 88 | 1017.3 |
| 20260831065534 | 18 | 108 | 1.6 | 4.8 | 0.00 | 0.15 | 0.13 | 87 | 1017.1 |
| 20260831064535 | 18 | 120 | 1.6 | 4.8 | 0.00 | 0.15 | 0.13 | 88 | 1017.1 |
| 20260831063535 | 18 | 93 | 1.6 | 3.2 | 0.00 | 0.15 | 0.13 | 89 | 1017.0 |
| 20260831062536 | 17 | 116 | 1.6 | 3.2 | 0.00 | 0.15 | 0.13 | 91 | 1016.9 |
| 20260831061556 | 17 | 98 | 0.0 | 3.2 | 0.00 | 0.15 | 0.13 | 92 | 1016.9 |
| 20260831060553 | 16 | 102 | 0.0 | 1.6 | 0.00 | 0.15 | 0.13 | 94 | 1016.9 |
| 20260831055537 | 16 | 136 | 0.0 | 3.2 | 0.00 | 0.15 | 0.13 | 94 | 1016.8 |
| 20260831053538 | 16 | 116 | 1.6 | 3.2 | 0.00 | 0.15 | 0.13 | 98 | 1016.6 |
| 20260831052538 | 16 | 0.0 | 1.6 | 0.00 | 0.15 | 0.13 | 99 | 1016.6 | |
| 20260831051539 | 16 | 0.0 | 0.0 | 0.00 | 0.15 | 0.13 | 99 | 1016.5 | |
| 20260831050600 | 16 | 111 | 0.0 | 1.6 | 0.00 | 0.15 | 0.13 | 98 | 1016.5 |
| 20260831045540 | 16 | 81 | 0.0 | 1.6 | 0.00 | 0.15 | 0.13 | 98 | 1016.6 |
| 20260831044540 | 16 | 0.0 | 0.0 | 0.00 | 0.15 | 0.13 | 97 | 1016.4 | |
| 20260831043540 | 16 | 80 | 0.0 | 1.6 | 0.00 | 0.15 | 0.13 | 96 | 1016.4 |
| 20260831042541 | 16 | 59 | 0.0 | 3.2 | 0.05 | 0.15 | 0.13 | 94 | 1016.5 |
| 20260831041541 | 16 | 193 | 3.2 | 9.7 | 0.13 | 0.15 | 0.13 | 94 | 1016.4 |
| 20260831040542 | 16 | 196 | 4.8 | 12.9 | 0.13 | 0.15 | 0.13 | 96 | 1016.6 |
| 20260831035602 | 16 | 204 | 4.8 | 12.9 | 0.13 | 0.15 | 0.13 | 96 | 1016.3 |
| 20260831034542 | 16 | 169 | 3.2 | 9.7 | 0.13 | 0.15 | 0.13 | 95 | 1016.5 |
| 20260831033603 | 17 | 338 | 3.2 | 11.3 | 0.13 | 0.15 | 0.13 | 95 | 1016.7 |
| 20260831032603 | 17 | 21 | 4.8 | 14.5 | 0.08 | 0.10 | 0.08 | 94 | 1016.7 |
| 20260831031544 | 17 | 337 | 1.6 | 8.0 | 0.00 | 0.03 | 0.00 | 97 | 1014.9 |
| 20260831030544 | 17 | 148 | 1.6 | 3.2 | 0.00 | 0.03 | 0.00 | 96 | 1014.7 |
| 20260831025544 | 17 | 0.0 | 0.0 | 0.00 | 0.03 | 0.00 | 95 | 1014.3 | |
| 20260831024545 | 17 | 0.0 | 1.6 | 0.00 | 0.03 | 0.00 | 94 | 1014.4 | |
| 20260831023546 | 17 | 0.0 | 0.0 | 0.00 | 0.03 | 0.00 | 94 | 1014.3 | |
| 20260831022546 | 17 | 0.0 | 0.0 | 0.00 | 0.03 | 0.00 | 94 | 1014.2 | |
| 20260831021546 | 17 | 0.0 | 0.0 | 0.00 | 0.03 | 0.00 | 93 | 1014.2 | |
| 20260831020547 | 17 | 0.0 | 0.0 | 0.00 | 0.03 | 0.00 | 93 | 1014.2 | |
| 20260831015547 | 17 | 0.0 | 0.0 | 0.00 | 0.03 | 0.00 | 94 | 1014.3 | |
| 20260831014547 | 17 | 68 | 0.0 | 1.6 | 0.00 | 0.03 | 0.00 | 95 | 1014.2 |
| 20260831013548 | 17 | 92 | 0.0 | 1.6 | 0.00 | 0.03 | 0.00 | 94 | 1014.4 |
| 20260831012609 | 17 | 0.0 | 0.0 | 0.00 | 0.03 | 0.00 | 94 | 1014.5 | |
| 20260831011549 | 17 | 87 | 0.0 | 1.6 | 0.00 | 0.03 | 0.00 | 94 | 1014.7 |
| 20260831010549 | 17 | 99 | 1.6 | 3.2 | 0.00 | 0.03 | 0.00 | 93 | 1014.6 |
| 20260831005549 | 18 | 94 | 1.6 | 3.2 | 0.00 | 0.03 | 0.00 | 93 | 1014.6 |
| 20260831004550 | 18 | 94 | 1.6 | 3.2 | 0.00 | 0.03 | 0.00 | 93 | 1014.8 |
| 20260831003610 | 18 | 82 | 0.0 | 1.6 | 0.00 | 0.03 | 0.00 | 93 | 1014.8 |
| 20260831002551 | 18 | 90 | 1.6 | 3.2 | 0.00 | 0.03 | 0.00 | 92 | 1014.9 |
| 20260831001551 | 18 | 94 | 1.6 | 3.2 | 0.00 | 0.03 | 0.00 | 92 | 1015.1 |
| 20260831000604 | 18 | 91 | 1.6 | 3.2 | 0.00 | 0.03 | 0.00 | 92 | 1015.1 |
| 20260830235552 | 18 | 109 | 1.6 | 3.2 | 0.00 | 0.03 | 0.00 | 91 | 1015.2 |
| 20260830234552 | 18 | 113 | 1.6 | 8.0 | 0.00 | 0.03 | 0.00 | 90 | 1015.4 |
| 20260830233553 | 18 | 113 | 3.2 | 9.7 | 0.00 | 0.03 | 0.00 | 90 | 1015.5 |
| 20260830232553 | 19 | 122 | 4.8 | 11.3 | 0.00 | 0.03 | 0.00 | 90 | 1015.6 |
| 20260830231554 | 19 | 115 | 3.2 | 9.7 | 0.00 | 0.03 | 0.00 | 89 | 1015.5 |
| 20260830230554 | 19 | 91 | 1.6 | 3.2 | 0.00 | 0.03 | 0.00 | 89 | 1015.4 |
| 20260830225554 | 18 | 96 | 1.6 | 4.8 | 0.00 | 0.03 | 0.00 | 89 | 1015.8 |
| 20260830224555 | 18 | 0.0 | 0.0 | 0.00 | 0.03 | 0.00 | 90 | 1015.8 | |
| 20260830223555 | 19 | 110 | 0.0 | 1.6 | 0.00 | 0.03 | 0.00 | 89 | 1016.0 |
| 20260830222556 | 19 | 128 | 1.6 | 8.0 | 0.00 | 0.03 | 0.00 | 87 | 1015.9 |
| 20260830221556 | 19 | 119 | 0.0 | 8.0 | 0.00 | 0.03 | 0.00 | 88 | 1015.9 |
| 20260830220617 | 19 | 119 | 0.0 | 1.6 | 0.00 | 0.03 | 0.00 | 89 | 1015.7 |
| 20260830215557 | 18 | 0.0 | 0.0 | 0.00 | 0.03 | 0.03 | 91 | 1015.8 | |
| 20260830214557 | 18 | 0.0 | 0.0 | 0.00 | 0.03 | 0.03 | 91 | 1015.9 | |
| 20260830213618 | 19 | 0.0 | 0.0 | 0.00 | 0.03 | 0.03 | 91 | 1015.7 | |
| 20260830212558 | 19 | 0.0 | 0.0 | 0.00 | 0.03 | 0.03 | 89 | 1015.6 | |
| 20260830211559 | 19 | 0.0 | 0.0 | 0.00 | 0.03 | 0.03 | 88 | 1015.6 | |
| 20260830210559 | 18 | 0.0 | 0.0 | 0.00 | 0.03 | 0.03 | 89 | 1015.6 | |
| 20260830205600 | 19 | 0.0 | 0.0 | 0.00 | 0.03 | 0.03 | 90 | 1015.6 | |
| 20260830204620 | 18 | 0.0 | 0.0 | 0.00 | 0.03 | 0.03 | 89 | 1015.7 | |
| 20260830203601 | 18 | 55 | 0.0 | 3.2 | 0.00 | 0.03 | 0.03 | 89 | 1015.7 |
| 20260830202621 | 19 | 38 | 1.6 | 4.8 | 0.00 | 0.03 | 0.03 | 90 | 1015.5 |
| 20260830201534 | 19 | 0.0 | 0.0 | 0.00 | 0.03 | 0.03 | 91 | 1015.5 | |
| 20260830200534 | 19 | 0.0 | 0.0 | 0.00 | 0.03 | 0.03 | 92 | 1015.7 | |
| 20260830195555 | 19 | 0.0 | 0.0 | 0.00 | 0.03 | 0.03 | 92 | 1015.8 | |
| 20260830194534 | 19 | 0.0 | 0.0 | 0.00 | 0.03 | 0.03 | 91 | 1015.9 | |
| 20260830193555 | 19 | 0.0 | 0.0 | 0.00 | 0.03 | 0.03 | 90 | 1015.8 | |
| 20260830192535 | 20 | 0.0 | 0.0 | 0.00 | 0.03 | 0.03 | 89 | 1015.7 | |
| 20260830191536 | 20 | 0.0 | 0.0 | 0.00 | 0.03 | 0.03 | 89 | 1015.8 | |
| 20260830190536 | 20 | 116 | 0.0 | 1.6 | 0.00 | 0.03 | 0.03 | 86 | 1015.7 |
| 20260830185557 | 20 | 0.0 | 0.0 | 0.00 | 0.03 | 0.03 | 85 | 1015.6 | |
| 20260830184538 | 21 | 65 | 0.0 | 1.6 | 0.00 | 0.03 | 0.03 | 82 | 1015.5 |
| 20260830183537 | 21 | 0.0 | 0.0 | 0.00 | 0.03 | 0.03 | 79 | 1015.4 | |
| 20260830182538 | 22 | 0.0 | 0.0 | 0.00 | 0.03 | 0.03 | 76 | 1015.4 | |
| 20260830181539 | 22 | 0.0 | 0.0 | 0.00 | 0.03 | 0.03 | 75 | 1015.4 | |
| 20260830180538 | 22 | 60 | 0.0 | 1.6 | 0.00 | 0.03 | 0.03 | 74 | 1015.4 |
| 20260830175539 | 23 | 64 | 0.0 | 1.6 | 0.00 | 0.03 | 0.03 | 71 | 1015.4 |
| 20260830174539 | 23 | 0.0 | 0.0 | 0.00 | 0.03 | 0.03 | 69 | 1015.1 | |
| 20260830173540 | 23 | 0.0 | 0.0 | 0.00 | 0.03 | 0.03 | 70 | 1015.0 | |
| 20260830172620 | 23 | 68 | 0.0 | 1.6 | 0.00 | 0.03 | 0.03 | 69 | 1014.9 |
| 20260830171541 | 24 | 62 | 0.0 | 1.6 | 0.00 | 0.03 | 0.03 | 67 | 1014.9 |
| 20260830170541 | 24 | 67 | 0.0 | 1.6 | 0.00 | 0.03 | 0.03 | 66 | 1014.9 |
| 20260830165541 | 24 | 67 | 0.0 | 1.6 | 0.00 | 0.03 | 0.03 | 65 | 1014.7 |
| 20260830164624 | 25 | 62 | 1.6 | 3.2 | 0.00 | 0.03 | 0.03 | 64 | 1014.8 |
| 20260830163542 | 25 | 68 | 1.6 | 3.2 | 0.00 | 0.03 | 0.03 | 63 | 1014.8 |
| 20260830162602 | 25 | 65 | 1.6 | 3.2 | 0.00 | 0.03 | 0.03 | 63 | 1014.7 |
| 20260830161543 | 25 | 60 | 1.6 | 4.8 | 0.00 | 0.03 | 0.03 | 61 | 1014.7 |
| 20260830160543 | 26 | 61 | 1.6 | 4.8 | 0.00 | 0.03 | 0.03 | 59 | 1014.7 |
| 20260830155543 | 26 | 54 | 3.2 | 9.7 | 0.00 | 0.03 | 0.03 | 58 | 1014.7 |
| 20260830154604 | 26 | 49 | 1.6 | 4.8 | 0.00 | 0.03 | 0.03 | 58 | 1014.8 |
| 20260830153544 | 27 | 36 | 1.6 | 4.8 | 0.00 | 0.03 | 0.03 | 54 | 1014.8 |
| 20260830152546 | 27 | 55 | 0.0 | 3.2 | 0.00 | 0.03 | 0.03 | 53 | 1014.8 |
| 20260830151605 | 27 | 46 | 1.6 | 3.2 | 0.00 | 0.03 | 0.03 | 51 | 1014.8 |
| 20260830150547 | 27 | 64 | 0.0 | 3.2 | 0.00 | 0.03 | 0.03 | 51 | 1014.7 |
| 20260830145606 | 27 | 76 | 0.0 | 1.6 | 0.00 | 0.03 | 0.03 | 50 | 1014.8 |
| 20260830144548 | 26 | 55 | 1.6 | 3.2 | 0.00 | 0.03 | 0.03 | 53 | 1015.0 |
| 20260830143547 | 27 | 60 | 1.6 | 3.2 | 0.00 | 0.03 | 0.03 | 52 | 1014.8 |
| 20260830142548 | 28 | 57 | 1.6 | 3.2 | 0.00 | 0.03 | 0.03 | 50 | 1014.9 |
| 20260830141548 | 28 | 250 | 1.6 | 8.0 | 0.00 | 0.03 | 0.03 | 47 | 1015.0 |
| 20260830140549 | 29 | 105 | 1.6 | 4.8 | 0.00 | 0.03 | 0.03 | 46 | 1015.0 |
| 20260830135548 | 28 | 202 | 1.6 | 4.8 | 0.00 | 0.03 | 0.03 | 47 | 1015.1 |
| 20260830134550 | 28 | 130 | 1.6 | 4.8 | 0.00 | 0.03 | 0.03 | 48 | 1015.0 |
| 20260830133630 | 27 | 97 | 1.6 | 3.2 | 0.00 | 0.03 | 0.03 | 49 | 1015.2 |
| 20260830132610 | 27 | 43 | 3.2 | 4.8 | 0.00 | 0.03 | 0.03 | 51 | 1015.2 |
| 20260830131551 | 28 | 71 | 1.6 | 3.2 | 0.00 | 0.03 | 0.03 | 49 | 1015.2 |
| 20260830130551 | 27 | 53 | 1.6 | 4.8 | 0.00 | 0.03 | 0.03 | 48 | 1015.4 |
| 20260830125552 | 28 | 43 | 1.6 | 4.8 | 0.00 | 0.03 | 0.03 | 48 | 1015.5 |
| 20260830124551 | 28 | 39 | 1.6 | 9.7 | 0.00 | 0.03 | 0.03 | 49 | 1015.6 |
| 20260830123552 | 26 | 58 | 1.6 | 8.0 | 0.00 | 0.03 | 0.03 | 49 | 1015.6 |
| 20260830122552 | 27 | 44 | 1.6 | 9.7 | 0.00 | 0.03 | 0.03 | 51 | 1015.6 |
| 20260830121553 | 27 | 35 | 1.6 | 4.8 | 0.00 | 0.03 | 0.03 | 51 | 1015.7 |
| 20260830120553 | 26 | 120 | 3.2 | 9.7 | 0.00 | 0.03 | 0.03 | 50 | 1015.7 |
| 20260830115614 | 28 | 36 | 3.2 | 12.9 | 0.00 | 0.03 | 0.03 | 49 | 1015.8 |
| 20260830114554 | 27 | 60 | 3.2 | 8.0 | 0.00 | 0.03 | 0.03 | 51 | 1016.0 |
| 20260830113556 | 27 | 156 | 3.2 | 14.5 | 0.00 | 0.03 | 0.03 | 51 | 1016.0 |
| 20260830112555 | 28 | 113 | 1.6 | 4.8 | 0.00 | 0.03 | 0.03 | 49 | 1016.2 |
| 20260830111555 | 26 | 102 | 1.6 | 8.0 | 0.00 | 0.03 | 0.03 | 51 | 1016.3 |
| 20260830110555 | 27 | 333 | 1.6 | 4.8 | 0.00 | 0.03 | 0.03 | 52 | 1016.3 |
| 20260830105559 | 26 | 118 | 1.6 | 4.8 | 0.00 | 0.03 | 0.03 | 52 | 1016.5 |
| 20260830104557 | 26 | 7 | 3.2 | 9.7 | 0.00 | 0.03 | 0.03 | 54 | 1016.5 |
| 20260830103557 | 26 | 38 | 3.2 | 4.8 | 0.00 | 0.03 | 0.03 | 54 | 1016.7 |
| 20260830102557 | 26 | 48 | 1.6 | 4.8 | 0.00 | 0.03 | 0.03 | 53 | 1016.8 |
| 20260830101558 | 26 | 78 | 1.6 | 8.0 | 0.00 | 0.03 | 0.03 | 54 | 1016.9 |
| 20260830100558 | 25 | 169 | 1.6 | 9.7 | 0.00 | 0.03 | 0.03 | 53 | 1017.1 |
| 20260830095559 | 26 | 185 | 3.2 | 9.7 | 0.00 | 0.03 | 0.03 | 53 | 1017.0 |